DW0775 Weather Reports


Display with metric or nautical units.
time (UTC)temp
F
wind
direction
speed
MPH
gust
MPH
rain 1hr
in
rain 24hr
in
rain mn
in
humidity
%
barometer
mb
20190118222830 28 348 3.0 5.0 0.00 0.00 0.00 69 1021.4
20190118222346 28 350 2.0 6.0 0.00 0.00 0.00 69 1021.5
20190118221836 28 350 3.0 6.0 0.00 0.00 0.00 68 1021.4
20190118221350 28 340 4.0 7.0 0.00 0.00 0.00 68 1021.5
20190118220842 28 340 3.0 7.0 0.00 0.00 0.00 68 1021.5
20190118220334 28 344 1.0 5.0 0.00 0.00 0.00 68 1021.7
20190118215847 28 344 3.0 6.0 0.00 0.00 0.00 69 1021.7
20190118215341 28 344 2.0 6.0 0.00 0.00 0.00 69 1021.7
20190118214836 28 355 4.0 6.0 0.00 0.00 0.00 68 1021.8
20190118214350 28 313 2.0 5.0 0.00 0.00 0.00 69 1021.6
20190118213841 28 312 1.0 4.0 0.00 0.00 0.00 69 1021.7
20190118213333 28 312 0.0 7.0 0.00 0.00 0.00 69 1021.7
20190118212846 28 315 1.0 7.0 0.00 0.00 0.00 69 1021.8
20190118212340 29 309 2.0 5.0 0.00 0.00 0.00 69 1021.6
20190118211830 29 328 0.0 2.0 0.00 0.00 0.00 69 1021.4
20190118211343 29 328 0.0 0.0 0.00 0.00 0.00 69 1021.4
20190118210835 29 343 0.0 0.0 0.00 0.00 0.00 69 1021.4
20190118210348 29 340 0.0 0.0 0.00 0.00 0.00 69 1021.3
20190118205838 28 265 0.0 0.0 0.00 0.00 0.00 70 1021.2
20190118205332 28 265 0.0 0.0 0.00 0.00 0.00 69 1021.1
20190118204844 28 263 0.0 0.0 0.00 0.00 0.00 69 1021.1
20190118204336 28 271 0.0 0.0 0.00 0.00 0.00 69 1021.2
20190118203848 28 278 0.0 0.0 0.00 0.00 0.00 70 1020.9
20190118203342 28 325 0.0 0.0 0.00 0.00 0.00 70 1020.8
20190118202833 28 325 0.0 0.0 0.00 0.00 0.00 70 1020.7
20190118202347 28 325 0.0 0.0 0.00 0.00 0.00 70 1020.6
20190118201837 28 325 0.0 0.0 0.00 0.00 0.00 69 1020.5
20190118201350 28 325 0.0 0.0 0.00 0.00 0.00 69 1020.4
20190118200842 28 327 0.0 0.0 0.00 0.00 0.00 70 1020.4
20190118200339 28 321 0.0 0.0 0.00 0.00 0.00 69 1020.4
20190118195830 28 321 0.0 0.0 0.00 0.00 0.00 70 1020.4
20190118195345 28 321 0.0 0.0 0.00 0.00 0.00 70 1020.3
20190118194835 28 323 0.0 0.0 0.00 0.00 0.00 69 1020.3
20190118194349 28 360 0.0 0.0 0.00 0.00 0.00 69 1020.3
20190118193841 28 344 0.0 0.0 0.00 0.00 0.00 69 1020.3
20190118193333 28 319 0.0 0.0 0.00 0.00 0.00 70 1020.4
20190118192847 28 323 0.0 0.0 0.00 0.00 0.00 70 1020.5
20190118192341 28 315 0.0 0.0 0.00 0.00 0.00 70 1020.5
20190118191831 28 316 0.0 0.0 0.00 0.00 0.00 69 1020.5
20190118191345 28 312 0.0 0.0 0.00 0.00 0.00 69 1020.5
20190118190837 28 321 0.0 0.0 0.00 0.00 0.00 70 1020.4
20190118190350 28 300 0.0 0.0 0.00 0.00 0.00 70 1020.5
20190118185842 28 304 0.0 0.0 0.00 0.00 0.00 70 1020.4
20190118185336 28 346 0.0 0.0 0.00 0.00 0.00 70 1020.5
20190118184845 28 314 0.0 0.0 0.00 0.00 0.00 70 1020.4
20190118184340 28 278 0.0 0.0 0.00 0.00 0.00 71 1020.5
20190118183832 28 355 0.0 0.0 0.00 0.00 0.00 70 1020.5
20190118183345 28 355 0.0 0.0 0.00 0.00 0.00 70 1020.5
20190118182838 28 345 0.0 0.0 0.00 0.00 0.00 71 1020.6
20190118182335 28 302 0.0 0.0 0.00 0.00 0.00 70 1020.5
20190118181846 27 304 0.0 0.0 0.00 0.00 0.00 70 1020.6
20190118181340 27 298 0.0 9.0 0.00 0.00 0.00 70 1020.6
20190118180832 27 309 0.0 10.0 0.00 0.00 0.00 70 1020.5
20190118180344 28 319 5.0 10.0 0.00 0.00 0.00 71 1020.8
20190118175834 28 346 2.0 3.0 0.00 0.00 0.00 71 1021.0
20190118175349 28 323 0.0 0.0 0.00 0.00 0.00 71 1021.0
20190118174838 28 325 0.0 0.0 0.00 0.00 0.00 71 1020.9
20190118174331 27 257 0.0 0.0 0.00 0.00 0.00 72 1020.9
20190118173843 27 305 0.0 0.0 0.00 0.00 0.00 72 1020.9
20190118172847 27 319 0.0 11.0 0.00 0.00 0.00 72 1021.0
20190118172340 27 323 2.0 11.0 0.00 0.00 0.00 71 1021.1
20190118171830 27 313 1.0 7.0 0.00 0.00 0.00 72 1021.1
20190118171345 27 261 2.0 7.0 0.00 0.00 0.00 72 1021.3
20190118170834 26 5 1.0 4.0 0.00 0.00 0.00 73 1021.0
20190118170344 26 9 0.0 1.0 0.00 0.00 0.00 73 1021.0
20190118165835 26 9 0.0 0.0 0.00 0.00 0.00 73 1021.0
20190118165349 26 9 0.0 0.0 0.00 0.00 0.00 73 1021.0
20190118164841 26 13 0.0 0.0 0.00 0.00 0.00 73 1020.9
20190118164333 26 15 0.0 5.0 0.00 0.00 0.00 74 1020.5
20190118163845 26 9 0.0 7.0 0.00 0.00 0.00 73 1020.5
20190118163342 26 355 4.0 7.0 0.00 0.00 0.00 73 1020.4
20190118162833 26 5 5.0 7.0 0.00 0.00 0.00 74 1020.3
20190118162347 26 360 5.0 7.0 0.00 0.00 0.00 74 1020.3
20190118161838 26 360 2.0 6.0 0.00 0.00 0.00 74 1020.3
20190118161332 26 355 4.0 7.0 0.00 0.00 0.00 75 1020.3
20190118160845 26 9 3.0 7.0 0.00 0.00 0.00 74 1020.3
20190118160339 25 18 0.0 0.0 0.00 0.00 0.00 75 1020.4
20190118155830 26 311 0.0 0.0 0.00 0.00 0.00 75 1020.5
20190118155344 26 294 0.0 0.0 0.00 0.00 0.00 75 1020.5
20190118154835 26 313 0.0 0.0 0.00 0.00 0.00 76 1020.5
20190118154350 26 311 0.0 0.0 0.00 0.00 0.00 76 1020.3
20190118153841 26 304 0.0 0.0 0.00 0.00 0.00 76 1020.3
20190118153332 26 320 0.0 0.0 0.00 0.00 0.00 77 1020.2
20190118152846 26 317 0.0 0.0 0.00 0.00 0.00 77 1020.1
20190118152341 26 348 0.0 0.0 0.00 0.00 0.00 77 1020.1
20190118151832 26 324 0.0 0.0 0.00 0.00 0.00 77 1020.2
20190118151346 26 277 0.0 0.0 0.00 0.00 0.00 77 1020.2
20190118150839 26 306 0.0 0.0 0.00 0.00 0.00 78 1020.2
20190118150351 26 319 0.0 0.0 0.00 0.00 0.00 77 1020.1
20190118145843 26 308 0.0 0.0 0.00 0.00 0.00 77 1020.1
20190118145341 26 338 0.0 0.0 0.00 0.00 0.00 78 1019.9
20190118144831 26 344 0.0 0.0 0.00 0.00 0.00 78 1019.9
20190118144346 26 301 0.0 0.0 0.00 0.00 0.00 79 1019.9
20190118143837 26 310 0.0 0.0 0.00 0.00 0.00 79 1019.9
20190118143350 26 298 0.0 0.0 0.00 0.00 0.00 80 1019.7
20190118142841 26 314 0.0 0.0 0.00 0.00 0.00 80 1019.7
20190118142334 26 313 0.0 0.0 0.00 0.00 0.00 80 1019.6
20190118141843 26 306 0.0 0.0 0.00 0.00 0.00 80 1019.7
20190118141335 26 311 0.0 0.0 0.00 0.00 0.00 81 1019.6
20190118140846 26 294 0.0 0.0 0.00 0.00 0.00 81 1019.4
20190118140337 26 259 0.0 0.0 0.00 0.00 0.00 81 1019.3
20190118135830 26 250 0.0 0.0 0.00 0.00 0.00 82 1019.1
20190118135344 26 300 0.0 0.0 0.00 0.00 0.00 83 1019.1
20190118134833 26 311 0.0 0.0 0.00 0.00 0.00 83 1018.8
20190118134331 26 308 0.0 0.0 0.00 0.00 0.00 83 1018.8
20190118133842 26 311 0.0 0.0 0.00 0.00 0.00 83 1018.8
20190118133334 26 335 0.0 0.0 0.00 0.00 0.00 84 1018.6
20190118132847 26 326 0.0 0.0 0.00 0.00 0.00 84 1018.5
20190118132341 26 296 0.0 0.0 0.00 0.00 0.00 84 1018.4
20190118131830 26 330 0.0 0.0 0.00 0.00 0.00 85 1018.4
20190118131344 26 318 0.0 0.0 0.00 0.00 0.00 85 1018.2
20190118130840 26 323 0.0 0.0 0.00 0.00 0.00 86 1018.2
20190118130333 26 334 0.0 0.0 0.00 0.00 0.00 86 1018.2
20190118125846 26 304 0.0 0.0 0.00 0.00 0.00 87 1018.1
20190118125340 26 321 0.0 0.0 0.00 0.00 0.00 87 1017.9
20190118124831 26 329 0.0 0.0 0.00 0.00 0.00 87 1017.8
20190118124347 26 325 0.0 0.0 0.00 0.00 0.00 88 1017.8
20190118123840 26 325 0.0 0.0 0.00 0.00 0.00 88 1017.7
20190118123331 26 5 0.0 0.0 0.00 0.00 0.00 88 1017.7
20190118122842 26 337 0.0 0.0 0.00 0.00 0.00 89 1017.7
20190118122336 27 327 0.0 0.0 0.00 0.00 0.00 89 1017.8
20190118121847 27 306 0.0 0.0 0.00 0.00 0.00 90 1017.7
20190118121340 27 325 0.0 0.0 0.00 0.00 0.00 90 1017.5
20190118120833 27 315 0.0 0.0 0.00 0.00 0.00 90 1017.7
20190118120345 27 337 0.0 0.0 0.00 0.00 0.00 91 1017.6
20190118115839 27 300 0.0 0.0 0.00 0.00 0.00 91 1017.6
20190118115335 27 304 0.0 6.0 0.00 0.00 0.00 91 1017.7
20190118114828 27 305 1.0 10.0 0.00 0.00 0.00 91 1017.6
20190118114345 27 306 5.0 10.0 0.00 0.00 0.00 91 1017.5
20190118113842 28 248 2.0 9.0 0.00 0.00 0.00 92 1017.4
20190118113341 28 329 1.0 6.0 0.00 0.00 0.00 92 1017.3
20190118112835 28 329 2.0 6.0 0.00 0.00 0.00 92 1017.3
20190118112333 28 329 1.0 6.0 0.00 0.00 0.00 92 1017.2
20190118111845 28 329 1.0 6.0 0.00 0.00 0.00 92 1017.2
20190118111343 28 319 1.0 6.0 0.00 0.00 0.00 92 1016.8
20190118110839 28 319 2.0 6.0 0.00 0.00 0.00 92 1016.8
20190118110334 28 320 2.0 6.0 0.00 0.00 0.00 92 1016.8
20190118105830 28 320 2.0 6.0 0.00 0.00 0.00 92 1016.8
20190118105346 28 330 2.0 6.0 0.00 0.00 0.00 92 1016.8
20190118104839 28 355 3.0 10.0 0.00 0.00 0.00 92 1016.7
20190118104335 28 10 5.0 17.0 0.00 0.00 0.00 92 1016.5
20190118103831 29 350 7.0 17.0 0.00 0.00 0.00 92 1016.5
20190118103346 29 355 3.0 11.0 0.00 0.00 0.00 92 1016.2
20190118102838 29 355 5.0 11.0 0.00 0.00 0.00 92 1016.3
20190118102332 29 340 5.0 10.0 0.00 0.00 0.00 93 1016.3
20190118101843 29 336 3.0 7.0 0.00 0.00 0.00 93 1016.1
20190118101336 29 314 1.0 9.0 0.00 0.00 0.00 93 1016.1
20190118100831 29 311 3.0 9.0 0.00 0.00 0.00 93 1016.1
20190118100343 29 327 2.0 7.0 0.00 0.00 0.00 93 1016.1
20190118095835 29 313 3.0 6.0 0.00 0.00 0.00 93 1016.1
20190118095348 29 314 2.0 7.0 0.00 0.00 0.00 93 1016.1
20190118094838 29 334 1.0 7.0 0.00 0.00 0.00 93 1016.1
20190118094331 29 96 1.0 4.0 0.00 0.00 0.00 93 1016.1
20190118093846 29 96 1.0 4.0 0.00 0.00 0.00 93 1016.1
20190118093343 29 100 0.0 4.0 0.00 0.00 0.00 93 1016.0
20190118092838 29 100 1.0 5.0 0.00 0.00 0.00 93 1016.0
20190118092334 29 99 2.0 6.0 0.00 0.00 0.00 93 1016.0
20190118091846 29 97 3.0 6.0 0.00 0.00 0.00 93 1016.0
20190118091339 29 96 1.0 4.0 0.00 0.00 0.00 93 1015.9
20190118090832 29 96 1.0 4.0 0.00 0.00 0.00 93 1016.0
20190118090345 29 96 1.0 3.0 0.00 0.00 0.00 93 1015.8
20190118085835 29 96 1.0 3.0 0.00 0.00 0.00 93 1015.8
20190118085350 29 96 1.0 3.0 0.00 0.00 0.00 93 1015.7
20190118084841 29 96 0.0 3.0 0.00 0.00 0.00 93 1015.7
20190118084334 29 96 1.0 5.0 0.00 0.00 0.00 93 1015.7
20190118083847 29 96 1.0 5.0 0.00 0.00 0.00 93 1015.8
20190118083339 29 96 1.0 5.0 0.00 0.00 0.00 92 1015.8
20190118082834 29 96 1.0 4.0 0.00 0.00 0.00 92 1015.8
20190118082348 29 96 1.0 4.0 0.00 0.00 0.00 92 1015.8
20190118081838 29 95 0.0 3.0 0.00 0.00 0.00 92 1015.8
20190118081331 29 95 0.0 0.0 0.00 0.00 0.00 92 1015.8
20190118080843 29 95 0.0 0.0 0.00 0.00 0.00 92 1015.8
20190118080335 29 95 0.0 0.0 0.00 0.00 0.00 93 1015.8
20190118075827 28 95 0.0 0.0 0.00 0.00 0.00 92 1015.7
20190118075345 28 95 0.0 0.0 0.00 0.00 0.00 92 1015.6
20190118074839 28 95 0.0 0.0 0.00 0.00 0.00 92 1015.5
20190118074336 28 95 0.0 0.0 0.00 0.00 0.00 92 1015.3
20190118073830 28 95 0.0 0.0 0.00 0.00 0.00 92 1015.3
20190118073345 28 95 0.0 0.0 0.00 0.00 0.00 92 1015.2
20190118072840 28 95 0.0 0.0 0.00 0.00 0.00 92 1015.2
20190118072337 28 95 0.0 0.0 0.00 0.00 0.00 92 1015.1
20190118071831 28 95 0.0 0.0 0.00 0.00 0.00 92 1015.0
20190118071327 28 95 0.0 1.0 0.00 0.00 0.00 92 1014.9
20190118070843 28 95 0.0 1.0 0.00 0.00 0.00 92 1014.9
20190118070339 28 95 0.0 1.0 0.00 0.00 0.00 92 1014.8
20190118065837 28 95 0.0 2.0 0.00 0.00 0.00 92 1014.9
20190118065339 28 95 0.0 2.0 0.00 0.00 0.00 92 1014.7
20190118064834 28 95 0.0 1.0 0.00 0.00 0.00 92 1014.7
20190118064330 28 95 0.0 2.0 0.00 0.00 0.00 92 1014.8
20190118063846 28 95 1.0 2.0 0.00 0.00 0.00 92 1014.8
20190118063341 28 95 0.0 1.0 0.00 0.00 0.00 92 1014.8
20190118062834 28 95 0.0 1.0 0.00 0.00 0.00 92 1014.7
20190118062332 28 95 0.0 0.0 0.00 0.00 0.00 92 1014.8
20190118061846 28 95 0.0 0.0 0.00 0.00 0.00 92 1014.8
20190118061343 28 95 0.0 0.0 0.00 0.00 0.00 92 1015.0
20190118060838 28 95 0.0 0.0 0.00 0.00 0.00 92 1015.1
20190118060334 28 95 0.0 0.0 0.00 0.00 0.00 92 1015.1
20190118055830 28 95 0.0 1.0 0.00 0.00 0.00 92 1015.1
20190118055348 28 95 0.0 1.0 0.00 0.00 0.00 92 1015.2
20190118054839 28 95 0.0 1.0 0.00 0.00 0.00 92 1015.1
20190118054336 28 95 0.0 1.0 0.00 0.00 0.00 92 1015.2
20190118053835 28 95 0.0 0.0 0.00 0.00 0.00 92 1015.1
20190118053331 28 95 0.0 1.0 0.00 0.00 0.00 92 1015.1
20190118052845 28 95 0.0 1.0 0.00 0.00 0.00 92 1015.0
20190118052343 28 95 0.0 1.0 0.00 0.00 0.00 92 1015.0
20190118051836 28 95 0.0 0.0 0.00 0.00 0.00 92 1015.2
20190118051331 28 95 0.0 0.0 0.00 0.00 0.00 92 1015.1
20190118050847 28 95 0.0 1.0 0.00 0.00 0.00 92 1015.1
20190118050342 28 95 0.0 1.0 0.00 0.00 0.00 92 1015.1
20190118045835 28 95 0.0 1.0 0.00 0.00 0.00 92 1015.2
20190118045332 28 95 0.0 1.0 0.00 0.00 0.00 92 1015.2
20190118044845 28 95 0.0 0.0 0.00 0.00 0.00 92 1015.3
20190118044341 28 95 0.0 0.0 0.00 0.00 0.00 92 1015.3
20190118043837 28 95 0.0 0.0 0.00 0.00 0.00 92 1015.3
20190118043332 28 95 0.0 1.0 0.00 0.00 0.00 92 1015.3
20190118042846 28 95 0.0 1.0 0.00 0.00 0.00 92 1015.4
20190118042343 28 95 0.0 0.0 0.00 0.00 0.00 92 1015.3
20190118041840 28 95 0.0 1.0 0.00 0.00 0.00 92 1015.3
20190118041341 28 95 0.0 1.0 0.00 0.00 0.00 91 1015.2
20190118040841 28 95 0.0 1.0 0.00 0.00 0.00 91 1015.2
20190118040336 28 95 0.0 2.0 0.00 0.00 0.00 92 1015.3
20190118035831 28 95 0.0 2.0 0.00 0.00 0.00 91 1015.2
20190118035329 28 95 1.0 2.0 0.00 0.00 0.00 91 1015.2
20190118034843 28 95 0.0 2.0 0.00 0.00 0.00 91 1015.2
20190118034339 28 95 0.0 2.0 0.00 0.00 0.00 91 1015.2
20190118033835 28 95 0.0 2.0 0.00 0.00 0.00 91 1015.2
20190118033330 28 95 0.0 2.0 0.00 0.00 0.00 91 1015.0
20190118032844 28 95 0.0 2.0 0.00 0.00 0.00 91 1015.0
20190118032341 28 95 0.0 3.0 0.00 0.00 0.00 91 1015.1
20190118031835 28 95 1.0 3.0 0.00 0.00 0.00 91 1015.2
20190118031332 28 95 0.0 2.0 0.00 0.00 0.00 91 1015.1
20190118030828 28 95 1.0 3.0 0.00 0.00 0.00 91 1015.1
20190118030344 29 95 0.0 3.0 0.00 0.00 0.00 91 1015.1
20190118025838 29 95 1.0 3.0 0.00 0.00 0.00 91 1015.1
20190118025337 29 95 1.0 2.0 0.00 0.00 0.00 91 1015.1
20190118024830 29 95 1.0 3.0 0.00 0.00 0.00 91 1015.0
20190118024347 29 95 0.0 3.0 0.00 0.00 0.00 91 1015.1
20190118023839 29 95 0.0 0.0 0.00 0.00 0.00 91 1015.2
20190118023331 29 95 0.0 0.0 0.00 0.00 0.00 91 1015.1
20190118022844 29 95 0.0 0.0 0.00 0.00 0.00 91 1015.0
20190118022336 29 95 0.0 0.0 0.00 0.00 0.00 91 1014.7
20190118021848 29 95 0.0 0.0 0.00 0.00 0.00 91 1015.0
20190118021342 29 95 0.0 0.0 0.00 0.00 0.00 91 1015.0
20190118020834 29 95 0.0 1.0 0.00 0.00 0.00 91 1015.1
20190118020346 29 95 0.0 1.0 0.00 0.00 0.00 91 1015.0
20190118015837 29 95 0.0 1.0 0.00 0.00 0.00 91 1015.1
20190118015350 29 95 0.0 1.0 0.00 0.00 0.00 91 1015.2
20190118014839 29 95 0.0 2.0 0.00 0.00 0.00 91 1015.2
20190118014331 29 95 0.0 2.0 0.00 0.00 0.00 90 1015.2
20190118013844 29 95 1.0 2.0 0.00 0.00 0.00 90 1015.1
20190118012846 29 95 0.0 2.0 0.00 0.00 0.00 90 1015.1
20190118012339 29 95 0.0 1.0 0.00 0.00 0.00 90 1015.2
20190118011829 29 95 0.0 1.0 0.00 0.00 0.00 90 1015.2
20190118011344 29 95 0.0 2.0 0.00 0.00 0.00 90 1015.2
20190118010838 29 95 0.0 2.0 0.00 0.00 0.00 90 1015.1
20190118010350 29 95 0.0 2.0 0.00 0.00 0.00 90 1015.0
20190118005842 29 95 0.0 2.0 0.00 0.00 0.00 89 1015.0
20190118005343 29 95 0.0 3.0 0.00 0.00 0.00 90 1014.9
20190118004834 29 95 0.0 3.0 0.00 0.00 0.00 89 1015.0
20190118004347 30 95 0.0 2.0 0.00 0.00 0.00 89 1015.1
20190118003839 30 95 0.0 2.0 0.00 0.00 0.00 89 1015.2
20190118003333 30 95 0.0 2.0 0.00 0.00 0.00 89 1015.2
20190118002846 30 95 1.0 2.0 0.00 0.00 0.00 89 1015.4
20190118002340 30 95 0.0 2.0 0.00 0.00 0.00 89 1015.5
20190118001831 30 95 0.0 2.0 0.00 0.00 0.00 89 1015.4
20190118001346 30 95 0.0 0.0 0.00 0.00 0.00 89 1015.4
20190118000838 30 95 0.0 0.0 0.00 0.00 0.00 88 1015.3
20190118000331 30 95 0.0 0.0 0.00 0.00 0.00 88 1015.3
20190117235846 30 95 0.0 0.0 0.00 0.00 0.00 88 1015.3
20190117235340 30 95 0.0 0.0 0.00 0.00 0.00 88 1015.3
20190117234830 30 95 0.0 0.0 0.00 0.00 0.00 88 1015.3
20190117234344 30 95 0.0 0.0 0.00 0.00 0.00 88 1015.3
20190117233837 30 95 0.0 0.0 0.00 0.00 0.00 88 1015.3
20190117233349 30 95 0.0 0.0 0.00 0.00 0.00 88 1015.2
20190117232839 30 95 0.0 0.0 0.00 0.00 0.00 87 1014.9
20190117232333 30 95 0.0 0.0 0.00 0.00 0.00 87 1014.9
20190117231844 30 95 0.0 0.0 0.00 0.00 0.00 87 1015.0
20190117231342 30 95 0.0 0.0 0.00 0.00 0.00 87 1015.0
20190117230835 30 95 0.0 0.0 0.00 0.00 0.00 87 1015.0
20190117230347 30 95 0.0 0.0 0.00 0.00 0.00 87 1015.0
20190117225837 30 95 0.0 0.0 0.00 0.00 0.00 87 1015.0
20190117225331 30 95 0.0 0.0 0.00 0.00 0.00 87 1015.0
20190117224843 30 95 0.0 0.0 0.00 0.00 0.00 87 1014.9
20190117224337 30 95 0.0 0.0 0.00 0.00 0.00 86 1014.9
20190117223850 30 95 0.0 0.0 0.00 0.00 0.00 86 1014.9
20190117223345 31 95 0.0 0.0 0.00 0.00 0.00 86 1015.0